Location: Sternwarte Stuttgart
(48.7670°N, 9.1830°E)
Time: 19:05:30
(UTC+01:00)

Lacrosse 5 - Pass Details

Date: 24 January 2019
Orbit: 713 x 725 km, 57.0° (Epoch: 17 February)

Event Time Altitude Azimuth Distance (km) Brightness Sun altitude
Exits shadow 06:38:33 17° 313° (NW) 1,778 3.4 -13.8°
Maximum altitude 06:42:19 51° 25° (NNE) 898 2.4 -13.2°
Drops below altitude 10° 06:47:15 10° 101° (E) 2,197 5.9 -12.5°
Sets 06:49:41 0° 107° (ESE) 3,117 7.3 -12.1°
